Weather History for Fort Meade, MD

Change the Weather History Date:

Thursday, January 31, 2013

  Actual Average (KBWI) Record (KBWI)
Temperature  
Mean Temperature 44 °F 33 °F  
Max Temperature 62 °F 42 °F 69 °F (1947)
Min Temperature 26 °F 25 °F 4 °F (1965)
Degree Days  
Heating Degree Days 21 32  
Month to date heating degree days 992  
Since 1 July heating degree days 2776  
Cooling Degree Days 0 0  
Month to date cooling degree days 0  
Year to date cooling degree days 0  
Moisture  
Dew Point 26 °F    
Average Humidity 55    
Maximum Humidity 94    
Minimum Humidity 29    
Precipitation  
Precipitation 0.00 in 0.10 in 1.54 in (1914)
Month to date precipitation 3.05  
Year to date precipitation 3.05  
Snow  
Snow 0.00 in 0.30 in 3.70 in (1985)
Month to date snowfall 6.8  
Since 1 July snowfall 10.2  
Snow Depth -    
Sea Level Pressure  
Sea Level Pressure 29.63 in    
Wind  
Wind Speed 15 mph (West)    
Max Wind Speed 28 mph    
Max Gust Speed 43 mph    
Visibility 9 miles    
Events      
T = Trace of Precipitation, MM = Missing Value Source: NWS Daily Summary

Daily Weather History Graph

Daily Weather History Graph

Search for Another Location

Airport:

Trip Planner

Search our weather history database for the weather conditions in past years. The results will help you decide how hot, cold, wet, or windy it might be!

Date:

Astronomy

Jan. 31, 2013 Rise Set
Actual Time 7:14 AM EST 5:27 PM EST
Civil Twilight 6:46 AM EST 5:55 PM EST
Nautical Twilight 6:14 AM EST 6:27 PM EST
Astronomical Twilight 5:42 AM EST 6:58 PM EST
Moon 10:24 PM EST (1/31) 9:15 AM EST (1/31)
Length of Visible Light 11h 09m
Length of Day
10h 12m
Waning Gibbous, 80% of the Moon is Illuminated
Jan 31
Waning Gibbous
Feb 3
Last Quarter
Feb 10
New
Feb 17
First Quarter
Feb 25
Full

Hourly Weather History & Observations

Time (EST) Temp. Windchill Dew Point Humidity Pressure Visibility Wind Dir Wind Speed Gust Speed Precip Events Conditions
12:03 AM 55.4 °F - 53.6 °F 94% 29.26 in 7.0 mi SSE 8.1 mph - N/A   Overcast
12:48 AM 57.2 °F - 55.4 °F 94% 29.24 in 5.0 mi West 12.7 mph - N/A   Overcast
1:09 AM 59.0 °F - 57.2 °F 94% 29.19 in 1.8 mi South 8.1 mph - N/A   Overcast
1:30 AM 62.6 °F - 60.8 °F 94% 29.16 in 5.0 mi SSW 13.8 mph 23.0 mph N/A   Mostly Cloudy
1:51 AM 60.8 °F - 57.2 °F 88% 29.21 in 2.0 mi West 16.1 mph 33.4 mph N/A   Overcast
2:12 AM 59.0 °F - 55.4 °F 88% 29.24 in 4.0 mi West 16.1 mph 27.6 mph N/A   Overcast
2:33 AM 59.0 °F - 55.4 °F 88% 29.23 in 2.5 mi WSW 8.1 mph - N/A   Overcast
3:00 AM 57.2 °F - 55.4 °F 94% 29.22 in 10.0 mi SW 10.4 mph 16.1 mph N/A   Mostly Cloudy
3:21 AM 55.4 °F - 51.8 °F 88% 29.18 in 10.0 mi SW 10.4 mph 20.7 mph N/A   Overcast
3:42 AM 55.4 °F - 50.0 °F 82% 29.20 in 10.0 mi SW 11.5 mph 21.9 mph N/A   Mostly Cloudy
4:03 AM 55.4 °F - 48.2 °F 77% 29.22 in 10.0 mi WSW 15.0 mph 28.8 mph N/A   Scattered Clouds
4:27 AM 55.4 °F - 46.4 °F 72% 29.26 in 10.0 mi WNW 23.0 mph 29.9 mph N/A   Overcast
4:48 AM 51.8 °F - 42.8 °F 71% 29.29 in 10.0 mi WNW 21.9 mph 38.0 mph N/A   Overcast
5:09 AM 50.0 °F - 33.8 °F 54% 29.32 in 10.0 mi West 23.0 mph 38.0 mph N/A   Overcast
5:30 AM 46.4 °F 38.1 °F 33.8 °F 62% 29.34 in 10.0 mi WNW 24.2 mph 42.6 mph N/A   Overcast
5:51 AM 46.4 °F 39.5 °F 32.0 °F 57% 29.37 in 10.0 mi West 17.3 mph 29.9 mph N/A   Overcast
6:12 AM 44.6 °F 35.5 °F 32.0 °F 61% 29.41 in 10.0 mi WNW 25.3 mph 33.4 mph N/A   Overcast
6:33 AM 44.6 °F 35.5 °F 30.2 °F 57% 29.43 in 10.0 mi West 25.3 mph 35.7 mph N/A   Overcast
6:54 AM 42.8 °F 34.8 °F 28.4 °F 57% 29.46 in 10.0 mi West 17.3 mph 35.7 mph N/A   Scattered Clouds
7:36 AM 41.0 °F 30.9 °F 28.4 °F 61% 29.52 in 10.0 mi WNW 24.2 mph 34.5 mph N/A   Scattered Clouds
7:57 AM 41.0 °F 31.9 °F 26.6 °F 57% 29.54 in 10.0 mi WNW 19.6 mph 29.9 mph N/A   Scattered Clouds
8:18 AM 41.0 °F 32.5 °F 24.8 °F 53% 29.56 in 10.0 mi West 17.3 mph 29.9 mph N/A   Clear
8:42 AM 41.0 °F 30.9 °F 23.0 °F 49% 29.57 in 10.0 mi West 24.2 mph 36.8 mph N/A   Clear
9:03 AM 41.0 °F 31.4 °F 23.0 °F 49% 29.58 in 10.0 mi WNW 21.9 mph 29.9 mph N/A   Clear
9:24 AM 42.8 °F 34.8 °F 23.0 °F 46% 29.60 in 10.0 mi West 17.3 mph 27.6 mph N/A   Clear
9:45 AM 42.8 °F 32.7 °F 23.0 °F 46% 29.61 in 10.0 mi West 27.6 mph 38.0 mph N/A   Scattered Clouds
10:06 AM 42.8 °F 32.7 °F 23.0 °F 46% 29.63 in 10.0 mi West 27.6 mph 42.6 mph N/A   Clear
10:27 AM 42.8 °F 34.0 °F 23.0 °F 46% 29.64 in 10.0 mi WNW 20.7 mph 33.4 mph N/A   Scattered Clouds
10:48 AM 42.8 °F 33.5 °F 23.0 °F 46% 29.65 in 10.0 mi West 23.0 mph 31.1 mph N/A   Scattered Clouds
11:09 AM 42.8 °F 33.8 °F 19.4 °F 39% 29.66 in 10.0 mi West 21.9 mph 38.0 mph N/A   Clear
11:30 AM 42.8 °F 34.0 °F 21.2 °F 42% 29.65 in 10.0 mi West 20.7 mph 35.7 mph N/A   Clear
11:51 AM 44.6 °F 38.1 °F 21.2 °F 39% 29.66 in 10.0 mi West 13.8 mph 29.9 mph N/A   Scattered Clouds
12:12 PM 42.8 °F 34.3 °F 19.4 °F 39% 29.67 in 10.0 mi West 19.6 mph 29.9 mph N/A   Scattered Clouds
12:33 PM 46.4 °F 38.3 °F 23.0 °F 40% 29.67 in 10.0 mi West 23.0 mph 31.1 mph N/A   Scattered Clouds
12:57 PM 44.6 °F 35.5 °F 19.4 °F 37% 29.68 in 10.0 mi West 25.3 mph 36.8 mph N/A   Scattered Clouds
1:18 PM 44.6 °F 36.6 °F 17.6 °F 34% 29.68 in 10.0 mi West 19.6 mph 35.7 mph N/A   Scattered Clouds
1:39 PM 44.6 °F 35.3 °F 14.0 °F 29% 29.69 in 10.0 mi West 26.5 mph 38.0 mph N/A   Scattered Clouds
2:00 PM 46.4 °F 39.5 °F 15.8 °F 29% 29.69 in 10.0 mi West 17.3 mph 28.8 mph N/A   Mostly Cloudy
2:21 PM 44.6 °F 37.2 °F 15.8 °F 31% 29.70 in 10.0 mi WNW 17.3 mph 32.2 mph N/A   Mostly Cloudy
2:42 PM 42.8 °F 33.8 °F 15.8 °F 34% 29.71 in 10.0 mi West 21.9 mph 33.4 mph N/A   Scattered Clouds
3:03 PM 42.8 °F 33.3 °F 21.2 °F 42% 29.74 in 10.0 mi West 24.2 mph 31.1 mph N/A   Scattered Clouds
3:24 PM 41.0 °F 31.6 °F 19.4 °F 42% 29.75 in 10.0 mi West 20.7 mph 25.3 mph N/A   Clear
3:45 PM 37.4 °F 28.2 °F 17.6 °F 45% 29.76 in 10.0 mi WNW 16.1 mph 28.8 mph N/A   Clear
4:06 PM 37.4 °F 28.2 °F 17.6 °F 45% 29.77 in 10.0 mi West 16.1 mph 28.8 mph N/A   Mostly Cloudy
4:27 PM 37.4 °F 25.9 °F 15.8 °F 41% 29.79 in 10.0 mi WSW 25.3 mph 35.7 mph N/A   Overcast
4:48 PM 37.4 °F 27.2 °F 14.0 °F 38% 29.81 in 10.0 mi West 19.6 mph 33.4 mph N/A   Scattered Clouds
5:12 PM 35.6 °F 25.5 °F 14.0 °F 41% 29.81 in 10.0 mi West 17.3 mph 27.6 mph N/A   Clear
5:33 PM 35.6 °F 24.2 °F 14.0 °F 41% 29.82 in 10.0 mi West 21.9 mph 33.4 mph N/A   Clear
5:54 PM 35.6 °F 24.8 °F 12.2 °F 38% 29.83 in 10.0 mi West 19.6 mph 31.1 mph N/A   Clear
6:15 PM 35.6 °F 26.2 °F 14.0 °F 41% 29.85 in 10.0 mi West 15.0 mph 28.8 mph N/A   Clear
6:36 PM 33.8 °F 24.3 °F 15.8 °F 48% 29.87 in 10.0 mi West 13.8 mph 20.7 mph N/A   Clear
6:57 PM 33.8 °F 23.9 °F 17.6 °F 52% 29.88 in 10.0 mi West 15.0 mph 21.9 mph N/A   Clear
7:18 PM 32.0 °F 21.2 °F 19.4 °F 60% 29.90 in 10.0 mi WNW 16.1 mph 28.8 mph N/A   Clear
7:39 PM 32.0 °F 21.6 °F 17.6 °F 55% 29.92 in 10.0 mi West 15.0 mph 25.3 mph N/A   Clear
8:00 PM 32.0 °F 24.2 °F 14.0 °F 48% 29.93 in 10.0 mi WNW 9.2 mph 20.7 mph N/A   Clear
8:21 PM 32.0 °F 23.0 °F 12.2 °F 44% 29.93 in 10.0 mi WNW 11.5 mph 23.0 mph N/A   Clear
8:42 PM 32.0 °F 23.6 °F 12.2 °F 44% 29.93 in 10.0 mi WNW 10.4 mph 17.3 mph N/A   Clear
9:03 PM 30.2 °F 21.9 °F 12.2 °F 47% 29.93 in 10.0 mi WNW 9.2 mph - N/A   Clear
9:27 PM 30.2 °F 22.6 °F 12.2 °F 47% 29.93 in 10.0 mi West 8.1 mph - N/A   Clear
9:48 PM 30.2 °F 25.4 °F 12.2 °F 47% 29.92 in 10.0 mi WNW 4.6 mph - N/A   Clear
10:09 PM 28.4 °F 24.6 °F 14.0 °F 55% 29.93 in 10.0 mi West 3.5 mph - N/A   Clear
10:30 PM 28.4 °F 24.6 °F 14.0 °F 55% 29.94 in 10.0 mi WSW 3.5 mph - N/A   Clear
10:51 PM 28.4 °F 24.6 °F 14.0 °F 55% 29.94 in 10.0 mi West 3.5 mph - N/A   Clear
11:12 PM 28.4 °F - 14.0 °F 55% 29.94 in 10.0 mi Calm Calm - N/A   Clear
11:33 PM 26.6 °F 22.6 °F 17.6 °F 69% 29.94 in 10.0 mi WSW 3.5 mph - N/A   Clear
11:54 PM 26.6 °F 22.6 °F 17.6 °F 69% 29.94 in 10.0 mi WSW 3.5 mph - N/A   Clear